{"data":{"norad_id":53778,"epoch":"2026-09-20T22:14:14.608608Z","epoch_age_seconds":46887,"freshness":"FRESH","line1":"1 53778U 22111F   26263.92655797  .00000412  00000+0  25048-4 0  9995","line2":"2 53778  53.1596 109.8454 0001168  85.6939 274.4196 15.31704698223271","mean_motion":15.31704698,"eccentricity":0.0001168,"inclination_deg":53.1596,"raan_deg":109.8454,"arg_perigee_deg":85.6939,"mean_anomaly_deg":274.4196,"bstar":2.5048e-5,"rev_number":22327,"period_min":94.012899606579,"perigee_km":469.92604357058,"apogee_km":471.52593796523,"semimajor_km":6848.8629907679,"source":"CELESTRAK","updated_at":"2026-09-21T09:00:32.992141Z"}}